Change the Weather History Date:

Sunday, July 28, 2013

  Actual Average (KBWI) Record (KBWI)
Temperature  
Mean Temperature 78 °F 77 °F  
Max Temperature 82 °F 87 °F 103 °F (1941)
Min Temperature 73 °F 67 °F 54 °F (1962)
Degree Days  
Heating Degree Days 0 0  
Month to date heating degree days 0  
Since 1 June heating degree days 15  
Since 1 July heating degree days 0  
Cooling Degree Days 12 12  
Month to date cooling degree days 334  
Year to date cooling degree days 656  
Since 1 June cooling degree days 572  
Growing Degree Days 28 (Base 50)    
Moisture  
Dew Point 71 °F    
Average Humidity 79    
Maximum Humidity 91    
Minimum Humidity 71    
Precipitation  
Precipitation 0.00 in 0.13 in 2.28 in (1871)
Month to date precipitation 3.67  
Year to date precipitation 24.16  
Snow  
Snow 0.00 in 0.00 in - ()
Month to date snowfall 0.0  
Since 1 July snowfall 0.0  
Snow Depth -    
Sea Level Pressure  
Sea Level Pressure 29.93 in    
Wind  
Wind Speed 7 mph (South)    
Max Wind Speed 14 mph    
Max Gust Speed -    
Visibility 10 miles    
Events Rain    
T = Trace of Precipitation, MM = Missing Value Source: NWS Daily Summary

Daily Weather History Graph

Daily Weather History Graph

Search for Another Location

Airport or City:

Trip Planner

Search our weather history database for the weather conditions in past years. The results will help you decide how hot, cold, wet, or windy it might be!

Date:

Astronomy

Jul. 28, 2013 Rise Set
Actual Time 6:03 AM EDT 8:20 PM EDT
Civil Twilight 5:33 AM EDT 8:50 PM EDT
Nautical Twilight 4:56 AM EDT 9:27 PM EDT
Astronomical Twilight 4:15 AM EDT 10:08 PM EDT
Moon 11:45 PM EDT (7/28) 12:39 PM EDT (7/28)
Length of Visible Light 15h 17m
Length of Day
14h 17m
Waning Gibbous, 61% of the Moon is Illuminated
Jul 28
Waning Gibbous
Jul 29
Last Quarter
Aug 6
New
Aug 14
First Quarter
Aug 20
Full

Hourly Weather History & Observations

Time (EDT) Temp. Heat Index Dew Point Humidity Pressure Visibility Wind Dir Wind Speed Gust Speed Precip Events Conditions
12:54 AM 75.9 °F - 66.9 °F 74% 29.94 in 10.0 mi South 9.2 mph - N/A   Clear
1:54 AM 75.9 °F - 66.0 °F 71% 29.94 in 10.0 mi South 6.9 mph - N/A   Overcast
2:54 AM 75.0 °F - 64.9 °F 71% 29.93 in 10.0 mi South 6.9 mph - N/A   Overcast
3:54 AM 75.0 °F - 64.9 °F 71% 29.92 in 10.0 mi South 8.1 mph - N/A   Overcast
4:54 AM 73.9 °F - 66.0 °F 76% 29.92 in 10.0 mi South 4.6 mph - N/A   Mostly Cloudy
5:54 AM 73.0 °F - 66.9 °F 81% 29.94 in 10.0 mi South 6.9 mph - N/A   Overcast
6:54 AM 73.9 °F - 68.0 °F 82% 29.94 in 10.0 mi South 10.4 mph - N/A   Mostly Cloudy
7:54 AM 73.9 °F - 69.1 °F 85% 29.94 in 10.0 mi South 6.9 mph - N/A   Overcast
8:54 AM 75.0 °F - 70.0 °F 84% 29.93 in 10.0 mi South 6.9 mph - N/A   Overcast
9:54 AM 75.9 °F - 71.1 °F 85% 29.92 in 10.0 mi South 5.8 mph - N/A   Mostly Cloudy
10:54 AM 78.1 °F - 72.0 °F 81% 29.94 in 10.0 mi Variable 5.8 mph - N/A   Mostly Cloudy
11:22 AM 78.1 °F - 72.0 °F 81% 29.93 in 10.0 mi South 4.6 mph - N/A   Scattered Clouds
11:34 AM 79.0 °F - 72.0 °F 79% 29.92 in 10.0 mi South 8.1 mph - N/A   Mostly Cloudy
11:43 AM 80.1 °F 84.2 °F 73.0 °F 79% 29.92 in 10.0 mi Variable 4.6 mph - N/A   Scattered Clouds
11:50 AM 78.8 °F - 71.6 °F 78% 29.92 in 10.0 mi Variable 4.6 mph - N/A   Mostly Cloudy
11:54 AM 80.1 °F 84.2 °F 73.0 °F 79% 29.93 in 10.0 mi Variable 3.5 mph - N/A   Mostly Cloudy
12:54 PM 81.0 °F 85.8 °F 73.0 °F 77% 29.93 in 10.0 mi Variable 4.6 mph - N/A   Mostly Cloudy
1:01 PM 80.1 °F 84.2 °F 73.0 °F 79% 29.92 in 10.0 mi Calm Calm - N/A   Mostly Cloudy
1:54 PM 80.1 °F 84.2 °F 73.0 °F 79% 29.92 in 10.0 mi SE 13.8 mph - N/A   Overcast
2:18 PM 82.0 °F 88.6 °F 75.0 °F 79% 29.91 in 10.0 mi South 10.4 mph - N/A   Mostly Cloudy
2:54 PM 82.0 °F 87.9 °F 73.9 °F 76% 29.91 in 10.0 mi South 6.9 mph - N/A   Mostly Cloudy
3:54 PM 82.9 °F 88.8 °F 73.0 °F 72% 29.90 in 10.0 mi SSE 9.2 mph - N/A   Clear
4:54 PM 82.0 °F 87.9 °F 73.9 °F 76% 29.90 in 10.0 mi Variable 4.6 mph - N/A   Mostly Cloudy
5:54 PM 80.1 °F 83.6 °F 71.1 °F 74% 29.90 in 10.0 mi South 11.5 mph - N/A   Clear
6:47 PM 78.1 °F - 73.0 °F 84% 29.89 in 10.0 mi NE 4.6 mph - N/A   Mostly Cloudy
6:54 PM 78.1 °F - 73.0 °F 84% 29.89 in 9.0 mi NE 8.1 mph - 0.00 in Rain Light Rain
7:24 PM 78.1 °F - 71.1 °F 79% 29.91 in 10.0 mi Variable 4.6 mph - 0.00 in   Mostly Cloudy
7:54 PM 77.0 °F - 71.1 °F 82% 29.93 in 10.0 mi South 5.8 mph - 0.00 in   Partly Cloudy
8:54 PM 78.1 °F - 73.0 °F 84% 29.93 in 10.0 mi SSE 9.2 mph - N/A   Clear
9:54 PM 75.9 °F - 73.0 °F 91% 29.95 in 10.0 mi WSW 4.6 mph - N/A   Clear
10:54 PM 75.0 °F - 69.1 °F 82% 29.96 in 10.0 mi WSW 5.8 mph - N/A   Clear
11:54 PM 75.0 °F - 70.0 °F 84% 29.98 in 10.0 mi West 5.8 mph - N/A   Scattered Clouds